Location: Bailleul
(50.3375°N, 2.8513°E)
Time: 00:24:09
(UTC+00:00)

FENGYUN 1C DEB - Visible Passes

Search period start: 15 August 2022 00:00
Search period end: 25 August 2022 00:00
Orbit: 838 x 910 km, 98.9° (Epoch: 22 July)

Date Brightness Start Highest point End Pass type
(mag) Time Alt. Az. Time Alt. Az. Time Alt. Az.
15 Aug ? 20:21:57 10° SSW 20:27:08 34° W 20:32:23 10° NNW visible
16 Aug ? 20:16:50 10° SSW 20:22:07 37° W 20:27:29 10° NNW visible
17 Aug ? 20:11:44 10° SSW 20:17:07 40° W 20:22:35 10° NNW visible
18 Aug ? 20:06:39 10° S 20:12:08 43° W 20:17:41 10° NNW visible
19 Aug ? 20:01:35 10° S 20:07:08 47° W 20:12:45 10° NNW visible
20 Aug ? 19:56:31 10° S 20:02:08 51° W 20:07:49 10° NNW visible
21 Aug ? 19:51:28 10° S 19:57:09 55° W 20:02:53 10° NNW visible
22 Aug ? 19:46:26 10° S 19:52:10 60° WSW 19:57:56 10° NNW visible
22 Aug ? 21:33:38 10° W 21:34:32 10° W 21:35:26 10° WNW visible
23 Aug ? 19:41:25 10° S 19:47:10 65° WSW 19:52:59 10° NNW visible
23 Aug ? 21:27:35 10° WSW 21:29:27 11° W 21:31:21 10° WNW visible
24 Aug ? 19:36:24 10° S 19:42:11 71° WSW 19:48:02 10° NNW visible
24 Aug ? 21:21:54 10° WSW 21:24:24 13° W 21:26:53 10° WNW visible
